STARLINK-2413 (47827 NORAD) Tracking and Keplerian Element Data

This shows tracking and keplerian element data for the satellite.

Feedback or suggestion? Click here.




ElementValue
Catalog47827
NameSTARLINK-2413
Epoch Orbit175
Epoch Day170.58334491
Epoch Year2021
RAAN61.4154
Inclination53.0542
Eccentricity0.0001547
Argument of Perigee81.2491
Mean Anonmoly154.1018
Mean Motion15.0634497
Decay Rate0.00038728
L11 47827U 21018AS 21170.58334491 .00038728 00000-0 26085-2 0 9999
L22 47827 53.0542 61.4154 0001547 81.2491 154.1018 15.06344970 1754

Live tracking and technical data element details for STARLINK-2413 (NORAD 47827). STARLINK-2413 can be tracked NOW for your location showing map with azimuth and elevation plus other details from your city location.

Track the satellite on the map from your city or location and see movement details for azimuth, elevation, latitude, longitude, range, height, and movement on the map or in text.







IsCatalogInMostPopularTable: catalog: 47827, numindb: 45
Update: records affected: 1



GetName: 47827 STARLINK-2413

Hit Count: updated at: Mon, 21 Jun 2021 04:57:07 GMT